Find Starlink 33645

NORAD ID: 63412 Int'l Des: 2025-065 Owner: SPXS Country: US Constellation: starlink operational
LEOCIRCULAR

Live Position

Loading 3D Globe...

About Starlink 33645

Description loading...

Upcoming Passes

Passes for default location (London). Set your location on the main map for personalized predictions.

Altitude History

Loading altitude history...

Two-Line Element Set

1 63412U 25065P 26124.41009532 .00011538 00000-0 42802-3 0 9990
2 63412 43.0036 155.6161 0001726 279.0591 81.0066 15.27589370 61328
Epoch: May 4, 2026 • Age: 8 hours

Current Status

Altitude 483.2 km
Velocity 7.63 km/s
Sub-Earth Point 23.49°N, 51.05°E
Launch Date Mar 31, 2025
Age 1 years
Type internet

Technical Details

Classification Payload
Mass 575.00 kg
Dry Mass 530.00 kg
Total Mass 575.00 kg
Length 0.30 m
Diameter 4.10 m
Span 29.00 m
Shape Box + pan
Manufacturer SPXS
Bus Type Starlink V2MO
Phase Status In Orbit
Owner/State SPXS/US

Most Searched